GFSFLT1_prec_precacc24_135.txt.gz
Total_Precipitation_Accumulation
0.45 0.24 0.12 0.01 0.00 0.00 0.00 0.00 0.00 0.00 0.00 0.00 0.00 0.00 0.00 0.00 0.00 0.00 0.00 0.00 0.00 0.00 0.00 0.00 0.00 0.00 0.00 0.00 0.00 0.00 0.00 0.00 0.00
0.48 0.33 0.14 0.01 0.00 0.00 0.00 0.00 0.00 0.00 0.00 0.00 0.00 0.00 0.00 0.00 0.00 0.00 0.00 0.00 0.00 0.00 0.00 0.00 0.00 0.00 0.00 0.00 0.00 0.00 0.00 0.00 0.00
0.42 0.31 0.25 0.06 0.00 0.00 0.00 0.00 0.00 0.00 0.00 0.00 0.00 0.00 0.00 0.00 0.00 0.00 0.00 0.00 0.00 0.00 0.00 0.00 0.00 0.00 0.00 0.00 0.00 0.00 0.00 0.00 0.00
0.25 0.23 0.20 0.12 0.01 0.00 0.00 0.00 0.00 0.00 0.00 0.00 0.00 0.00 0.00 0.00 0.00 0.00 0.00 0.00 0.00 0.00 0.00 0.00 0.00 0.00 0.00 0.00 0.00 0.00 0.00 0.00 0.00
0.18 0.09 0.06 0.10 0.04 0.00 0.00 0.00 0.00 0.00 0.00 0.00 0.00 0.00 0.00 0.00 0.00 0.00 0.00 0.00 0.00 0.00 0.00 0.00 0.00 0.00 0.00 0.00 0.00 0.00 0.00 0.00 0.00
0.10 0.05 0.01 0.03 0.03 0.00 0.00 0.00 0.00 0.00 0.00 0.00 0.00 0.00 0.00 0.00 0.00 0.00 0.00 0.00 0.00 0.00 0.00 0.00 0.00 0.00 0.00 0.00 0.00 0.00 0.00 0.00 0.00
0.05 0.05 0.03 0.02 0.01 0.01 0.01 0.00 0.00 0.00 0.00 0.00 0.00 0.00 0.00 0.00 0.00 0.00 0.00 0.00 0.00 0.00 0.00 0.00 0.00 0.00 0.00 0.00 0.00 0.00 0.00 0.00 0.00
0.11 0.09 0.01 0.01 0.00 0.00 0.01 0.00 0.00 0.00 0.00 0.00 0.00 0.00 0.00 0.00 0.00 0.00 0.00 0.00 0.00 0.00 0.00 0.00 0.00 0.00 0.00 0.00 0.00 0.00 0.00 0.00 0.00
0.14 0.11 0.04 0.01 0.00 0.00 0.00 0.00 0.00 0.00 0.00 0.00 0.00 0.00 0.00 0.00 0.00 0.00 0.00 0.00 0.00 0.00 0.01 0.05 0.07 0.07 0.03 0.03 0.03 0.05 0.04 0.00 0.01
0.09 0.13 0.11 0.07 0.03 0.02 0.00 0.00 0.00 0.00 0.00 0.00 0.00 0.00 0.00 0.00 0.00 0.00 0.00 0.00 0.00 0.00 0.01 0.04 0.04 0.04 0.01 0.02 0.05 0.09 0.04 0.00 0.01
0.16 0.15 0.10 0.06 0.09 0.04 0.02 0.00 0.00 0.00 0.00 0.00 0.00 0.00 0.00 0.00 0.00 0.00 0.00 0.00 0.00 0.00 0.00 0.00 0.02 0.04 0.03 0.02 0.05 0.07 0.04 0.01 0.01
0.21 0.17 0.16 0.19 0.31 0.31 0.18 0.08 0.06 0.02 0.01 0.00 0.00 0.00 0.00 0.00 0.00 0.00 0.00 0.00 0.00 0.00 0.00 0.00 0.00 0.01 0.02 0.01 0.02 0.07 0.06 0.04 0.03
0.15 0.11 0.07 0.22 0.46 0.54 0.36 0.19 0.12 0.02 0.00 0.00 0.00 0.00 0.00 0.00 0.00 0.00 0.00 0.00 0.00 0.00 0.00 0.00 0.00 0.00 0.01 0.02 0.00 0.07 0.11 0.07 0.05
0.29 0.21 0.16 0.26 0.43 0.42 0.35 0.30 0.23 0.13 0.08 0.05 0.04 0.02 0.01 0.01 0.00 0.00 0.00 0.00 0.00 0.00 0.00 0.00 0.00 0.00 0.00 0.00 0.00 0.07 0.18 0.08 0.11
0.42 0.48 0.40 0.46 0.54 0.66 0.65 0.30 0.31 0.28 0.32 0.31 0.16 0.08 0.05 0.02 0.01 0.00 0.00 0.00 0.00 0.00 0.00 0.00 0.00 0.00 0.00 0.00 0.00 0.01 0.13 0.17 0.17
0.27 0.58 0.72 0.70 0.65 0.56 0.64 0.68 0.54 0.29 0.30 0.36 0.20 0.17 0.09 0.03 0.02 0.00 0.00 0.00 0.00 0.00 0.00 0.00 0.00 0.00 0.01 0.02 0.00 0.01 0.05 0.16 0.15
0.16 0.22 0.32 0.50 0.62 0.58 0.48 0.50 0.48 0.34 0.32 0.27 0.19 0.09 0.03 0.01 0.00 0.00 0.00 0.00 0.00 0.01 0.01 0.02 0.05 0.04 0.04 0.12 0.13 0.06 0.05 0.11 0.14
0.14 0.19 0.20 0.22 0.28 0.31 0.31 0.35 0.42 0.33 0.29 0.28 0.22 0.04 0.01 0.00 0.00 0.00 0.00 0.00 0.01 0.01 0.03 0.11 0.19 0.16 0.09 0.11 0.10 0.13 0.13 0.11 0.15
0.19 0.27 0.34 0.34 0.35 0.23 0.21 0.21 0.30 0.31 0.24 0.18 0.15 0.10 0.06 0.04 0.04 0.01 0.02 0.04 0.06 0.09 0.11 0.12 0.10 0.07 0.05 0.05 0.05 0.04 0.03 0.03 0.03
0.27 0.36 0.40 0.35 0.30 0.34 0.34 0.29 0.28 0.30 0.30 0.25 0.17 0.16 0.16 0.15 0.19 0.12 0.06 0.05 0.04 0.05 0.04 0.04 0.02 0.02 0.02 0.03 0.03 0.01 0.00 0.01 0.08

GFSFLT1_prec_precacc24_138.txt.gz
Total_Precipitation_Accumulation
0.38 0.21 0.12 0.02 0.00 0.00 0.00 0.00 0.00 0.00 0.00 0.00 0.00 0.00 0.00 0.00 0.00 0.00 0.00 0.00 0.00 0.00 0.00 0.00 0.00 0.00 0.00 0.00 0.00 0.00 0.00 0.00 0.00
0.44 0.32 0.14 0.01 0.00 0.00 0.00 0.00 0.00 0.00 0.00 0.00 0.00 0.00 0.00 0.00 0.00 0.00 0.00 0.00 0.00 0.00 0.00 0.00 0.00 0.00 0.00 0.00 0.00 0.00 0.00 0.00 0.00
0.39 0.33 0.26 0.06 0.00 0.00 0.00 0.00 0.00 0.00 0.00 0.00 0.00 0.00 0.00 0.00 0.00 0.00 0.00 0.00 0.00 0.00 0.00 0.00 0.00 0.00 0.00 0.00 0.00 0.00 0.00 0.00 0.00
0.23 0.24 0.21 0.13 0.01 0.00 0.00 0.00 0.00 0.00 0.00 0.00 0.00 0.00 0.00 0.00 0.00 0.00 0.00 0.00 0.00 0.00 0.00 0.00 0.00 0.00 0.00 0.00 0.00 0.00 0.00 0.00 0.00
0.13 0.09 0.06 0.10 0.08 0.02 0.00 0.00 0.00 0.00 0.00 0.00 0.00 0.00 0.00 0.00 0.00 0.00 0.00 0.00 0.00 0.00 0.00 0.00 0.00 0.00 0.00 0.00 0.00 0.00 0.00 0.00 0.00
0.07 0.04 0.01 0.03 0.03 0.01 0.01 0.00 0.00 0.00 0.00 0.00 0.00 0.00 0.00 0.00 0.00 0.00 0.00 0.00 0.00 0.00 0.00 0.00 0.00 0.00 0.00 0.00 0.00 0.00 0.00 0.00 0.00
0.05 0.05 0.03 0.02 0.01 0.01 0.01 0.00 0.00 0.00 0.00 0.00 0.00 0.00 0.00 0.00 0.00 0.00 0.00 0.00 0.00 0.00 0.00 0.00 0.00 0.00 0.00 0.00 0.00 0.00 0.00 0.00 0.00
0.11 0.09 0.01 0.01 0.00 0.00 0.01 0.00 0.00 0.00 0.00 0.00 0.00 0.00 0.00 0.00 0.00 0.00 0.00 0.00 0.00 0.00 0.00 0.00 0.00 0.00 0.00 0.00 0.00 0.00 0.00 0.00 0.00
0.14 0.11 0.04 0.01 0.00 0.00 0.00 0.00 0.00 0.00 0.00 0.00 0.00 0.00 0.00 0.00 0.00 0.00 0.00 0.00 0.00 0.00 0.01 0.05 0.05 0.06 0.02 0.03 0.02 0.04 0.04 0.00 0.01
0.10 0.13 0.11 0.07 0.03 0.02 0.00 0.00 0.00 0.00 0.00 0.00 0.00 0.00 0.00 0.00 0.00 0.00 0.00 0.00 0.00 0.00 0.01 0.04 0.04 0.04 0.01 0.02 0.05 0.09 0.04 0.01 0.02
0.17 0.16 0.10 0.06 0.08 0.05 0.03 0.02 0.01 0.00 0.00 0.00 0.00 0.00 0.00 0.00 0.00 0.00 0.00 0.00 0.00 0.00 0.00 0.00 0.02 0.04 0.03 0.02 0.05 0.08 0.05 0.02 0.02
0.22 0.18 0.16 0.19 0.31 0.38 0.28 0.18 0.14 0.05 0.03 0.01 0.00 0.01 0.01 0.00 0.00 0.00 0.00 0.00 0.00 0.00 0.00 0.00 0.00 0.01 0.01 0.01 0.02 0.07 0.07 0.05 0.05
0.11 0.10 0.06 0.21 0.47 0.62 0.48 0.33 0.27 0.16 0.12 0.08 0.03 0.03 0.02 0.00 0.00 0.00 0.00 0.00 0.00 0.00 0.00 0.00 0.00 0.00 0.01 0.02 0.00 0.07 0.11 0.08 0.07
0.15 0.13 0.10 0.23 0.40 0.46 0.45 0.42 0.39 0.27 0.19 0.13 0.12 0.06 0.02 0.01 0.00 0.00 0.00 0.00 0.00 0.00 0.00 0.00 0.00 0.00 0.00 0.00 0.00 0.07 0.19 0.10 0.13
0.09 0.11 0.11 0.18 0.27 0.61 0.72 0.36 0.40 0.35 0.45 0.48 0.28 0.20 0.11 0.04 0.02 0.03 0.02 0.01 0.01 0.01 0.00 0.00 0.00 0.00 0.00 0.00 0.00 0.01 0.13 0.19 0.19
0.11 0.14 0.20 0.22 0.19 0.39 0.68 0.74 0.58 0.36 0.41 0.49 0.28 0.23 0.16 0.09 0.07 0.08 0.06 0.03 0.01 0.00 0.00 0.00 0.00 0.00 0.01 0.02 0.00 0.00 0.05 0.18 0.20
0.11 0.12 0.16 0.26 0.36 0.45 0.43 0.51 0.53 0.40 0.41 0.33 0.24 0.12 0.06 0.02 0.02 0.08 0.08 0.05 0.03 0.02 0.04 0.03 0.05 0.04 0.04 0.12 0.13 0.06 0.05 0.11 0.16
0.09 0.15 0.18 0.18 0.22 0.24 0.28 0.35 0.46 0.38 0.40 0.38 0.33 0.11 0.02 0.01 0.00 0.00 0.01 0.01 0.03 0.02 0.04 0.11 0.19 0.16 0.09 0.11 0.10 0.13 0.13 0.11 0.17
0.13 0.17 0.22 0.25 0.31 0.22 0.21 0.23 0.37 0.39 0.30 0.28 0.23 0.24 0.13 0.06 0.04 0.01 0.01 0.03 0.06 0.09 0.11 0.12 0.10 0.07 0.05 0.05 0.05 0.04 0.03 0.03 0.04
0.16 0.20 0.23 0.18 0.18 0.30 0.31 0.30 0.32 0.35 0.34 0.32 0.29 0.28 0.27 0.21 0.21 0.11 0.06 0.05 0.04 0.04 0.04 0.03 0.02 0.02 0.02 0.03 0.03 0.01 0.00 0.01 0.08

GFSFLT1_prec_precacc24_144.txt.gz
Total_Precipitation_Accumulation
0.08 0.07 0.06 0.02 0.00 0.00 0.00 0.00 0.00 0.00 0.01 0.01 0.00 0.00 0.00 0.00 0.00 0.00 0.00 0.00 0.00 0.00 0.00 0.00 0.00 0.00 0.00 0.00 0.00 0.00 0.00 0.00 0.00
0.19 0.20 0.12 0.01 0.00 0.00 0.00 0.00 0.00 0.00 0.00 0.00 0.00 0.00 0.00 0.00 0.00 0.00 0.00 0.00 0.00 0.00 0.00 0.00 0.00 0.00 0.00 0.00 0.00 0.00 0.00 0.00 0.00
0.20 0.22 0.24 0.06 0.00 0.00 0.00 0.00 0.00 0.00 0.00 0.00 0.00 0.00 0.00 0.00 0.00 0.00 0.00 0.00 0.00 0.00 0.00 0.00 0.00 0.00 0.00 0.00 0.00 0.00 0.00 0.00 0.00
0.11 0.18 0.21 0.13 0.02 0.02 0.01 0.00 0.00 0.00 0.00 0.00 0.00 0.00 0.00 0.00 0.00 0.00 0.00 0.00 0.00 0.00 0.00 0.00 0.00 0.00 0.00 0.00 0.00 0.00 0.00 0.00 0.00
0.04 0.04 0.05 0.12 0.11 0.08 0.06 0.04 0.01 0.00 0.00 0.00 0.00 0.00 0.00 0.00 0.00 0.00 0.00 0.00 0.00 0.00 0.00 0.00 0.00 0.00 0.00 0.00 0.00 0.00 0.00 0.00 0.00
0.03 0.01 0.00 0.03 0.04 0.03 0.06 0.08 0.06 0.02 0.00 0.00 0.00 0.00 0.00 0.00 0.00 0.00 0.00 0.00 0.00 0.00 0.00 0.00 0.00 0.00 0.00 0.00 0.00 0.00 0.00 0.00 0.00
0.05 0.03 0.02 0.02 0.01 0.02 0.03 0.04 0.03 0.01 0.00 0.00 0.00 0.00 0.00 0.00 0.00 0.00 0.00 0.00 0.00 0.00 0.01 0.00 0.00 0.00 0.00 0.00 0.00 0.00 0.00 0.00 0.00
0.11 0.09 0.03 0.01 0.00 0.00 0.01 0.02 0.04 0.03 0.04 0.02 0.00 0.00 0.00 0.00 0.00 0.00 0.00 0.00 0.00 0.00 0.00 0.01 0.00 0.00 0.00 0.00 0.00 0.00 0.00 0.00 0.00
0.09 0.08 0.06 0.05 0.03 0.01 0.01 0.00 0.00 0.00 0.02 0.02 0.00 0.00 0.00 0.00 0.00 0.00 0.00 0.00 0.00 0.00 0.00 0.02 0.04 0.02 0.00 0.00 0.01 0.02 0.01 0.00 0.02
0.06 0.08 0.08 0.07 0.04 0.02 0.03 0.02 0.00 0.00 0.02 0.05 0.03 0.01 0.00 0.00 0.00 0.00 0.00 0.00 0.00 0.00 0.00 0.01 0.02 0.03 0.01 0.01 0.04 0.08 0.03 0.01 0.04
0.10 0.10 0.08 0.06 0.08 0.05 0.04 0.04 0.04 0.01 0.01 0.01 0.01 0.01 0.01 0.01 0.00 0.00 0.00 0.00 0.00 0.00 0.00 0.00 0.00 0.03 0.03 0.02 0.06 0.10 0.07 0.04 0.05
0.19 0.15 0.14 0.18 0.30 0.38 0.29 0.21 0.19 0.09 0.06 0.04 0.02 0.02 0.04 0.04 0.03 0.01 0.00 0.00 0.00 0.00 0.00 0.00 0.00 0.00 0.01 0.01 0.04 0.09 0.11 0.07 0.07
0.10 0.10 0.05 0.17 0.42 0.59 0.49 0.36 0.31 0.20 0.17 0.16 0.15 0.17 0.15 0.09 0.08 0.06 0.03 0.02 0.01 0.00 0.00 0.00 0.00 0.00 0.01 0.02 0.02 0.10 0.14 0.12 0.10
0.14 0.12 0.10 0.23 0.37 0.39 0.41 0.43 0.43 0.34 0.29 0.28 0.31 0.29 0.22 0.18 0.15 0.09 0.06 0.06 0.06 0.03 0.01 0.00 0.00 0.00 0.01 0.00 0.01 0.09 0.22 0.15 0.18
0.09 0.10 0.10 0.16 0.20 0.24 0.31 0.24 0.39 0.42 0.54 0.59 0.40 0.35 0.30 0.23 0.20 0.19 0.20 0.20 0.09 0.06 0.04 0.04 0.04 0.03 0.02 0.02 0.01 0.02 0.14 0.20 0.21
0.11 0.13 0.19 0.20 0.13 0.15 0.29 0.40 0.44 0.33 0.44 0.56 0.37 0.33 0.27 0.19 0.20 0.27 0.31 0.29 0.28 0.24 0.12 0.08 0.10 0.09 0.10 0.12 0.09 0.04 0.05 0.18 0.20
0.11 0.11 0.14 0.23 0.22 0.22 0.24 0.29 0.34 0.32 0.43 0.42 0.36 0.22 0.14 0.07 0.04 0.09 0.14 0.19 0.27 0.26 0.16 0.09 0.09 0.11 0.10 0.16 0.17 0.06 0.04 0.11 0.16
0.07 0.11 0.15 0.15 0.18 0.18 0.20 0.24 0.31 0.26 0.38 0.41 0.43 0.22 0.10 0.10 0.04 0.01 0.02 0.04 0.07 0.13 0.15 0.16 0.17 0.14 0.07 0.10 0.11 0.10 0.06 0.05 0.15
0.10 0.13 0.18 0.20 0.27 0.19 0.18 0.21 0.34 0.41 0.30 0.28 0.26 0.30 0.22 0.13 0.05 0.03 0.02 0.01 0.03 0.12 0.17 0.19 0.12 0.07 0.06 0.05 0.05 0.04 0.02 0.00 0.02
0.15 0.17 0.19 0.16 0.17 0.31 0.33 0.31 0.35 0.36 0.36 0.37 0.35 0.30 0.31 0.28 0.18 0.09 0.06 0.08 0.05 0.02 0.02 0.03 0.03 0.02 0.02 0.02 0.03 0.01 0.00 0.01 0.08

GFSFLT1_prec_precacc24_147.txt.gz
Total_Precipitation_Accumulation
0.02 0.02 0.01 0.03 0.01 0.00 0.00 0.00 0.00 0.00 0.01 0.02 0.00 0.00 0.00 0.00 0.00 0.00 0.00 0.00 0.00 0.00 0.00 0.00 0.00 0.00 0.00 0.00 0.00 0.00 0.00 0.00 0.00
0.10 0.07 0.04 0.01 0.00 0.00 0.00 0.00 0.00 0.00 0.00 0.01 0.00 0.00 0.00 0.00 0.00 0.00 0.00 0.00 0.00 0.00 0.00 0.00 0.00 0.00 0.00 0.00 0.00 0.00 0.00 0.00 0.00
0.13 0.12 0.17 0.05 0.00 0.00 0.00 0.00 0.00 0.00 0.00 0.00 0.00 0.00 0.00 0.00 0.00 0.00 0.00 0.00 0.00 0.00 0.00 0.00 0.00 0.00 0.00 0.00 0.00 0.00 0.00 0.00 0.00
0.07 0.12 0.16 0.12 0.02 0.03 0.02 0.00 0.00 0.00 0.00 0.00 0.00 0.00 0.00 0.00 0.00 0.00 0.00 0.00 0.00 0.00 0.00 0.00 0.00 0.00 0.00 0.00 0.00 0.00 0.00 0.00 0.00
0.01 0.01 0.03 0.11 0.11 0.09 0.08 0.05 0.02 0.00 0.00 0.00 0.00 0.00 0.00 0.00 0.00 0.00 0.00 0.00 0.00 0.00 0.00 0.00 0.00 0.00 0.00 0.00 0.00 0.00 0.00 0.00 0.00
0.06 0.05 0.00 0.01 0.04 0.03 0.06 0.08 0.07 0.02 0.00 0.00 0.00 0.00 0.00 0.00 0.00 0.00 0.00 0.00 0.00 0.00 0.00 0.00 0.00 0.00 0.00 0.00 0.00 0.00 0.00 0.00 0.00
0.04 0.04 0.00 0.00 0.01 0.02 0.03 0.04 0.03 0.01 0.01 0.01 0.00 0.00 0.00 0.00 0.00 0.00 0.00 0.00 0.00 0.00 0.01 0.00 0.00 0.00 0.00 0.00 0.00 0.00 0.00 0.00 0.00
0.08 0.09 0.05 0.02 0.01 0.00 0.01 0.02 0.04 0.03 0.05 0.05 0.03 0.00 0.00 0.00 0.00 0.00 0.00 0.00 0.00 0.00 0.00 0.01 0.00 0.00 0.00 0.00 0.00 0.00 0.00 0.00 0.00
0.03 0.04 0.06 0.07 0.06 0.03 0.02 0.01 0.00 0.00 0.02 0.03 0.01 0.01 0.00 0.00 0.00 0.00 0.00 0.00 0.00 0.00 0.00 0.01 0.01 0.02 0.00 0.00 0.00 0.01 0.01 0.00 0.02
0.03 0.03 0.02 0.03 0.03 0.03 0.05 0.04 0.02 0.02 0.03 0.05 0.04 0.01 0.00 0.00 0.00 0.00 0.00 0.00 0.00 0.00 0.00 0.00 0.00 0.01 0.01 0.03 0.04 0.07 0.03 0.02 0.04
0.04 0.04 0.04 0.02 0.02 0.03 0.04 0.06 0.07 0.04 0.03 0.01 0.01 0.01 0.01 0.02 0.00 0.00 0.00 0.00 0.00 0.00 0.00 0.00 0.00 0.00 0.00 0.04 0.07 0.11 0.09 0.05 0.06
0.13 0.09 0.07 0.09 0.20 0.29 0.27 0.21 0.21 0.13 0.10 0.07 0.03 0.02 0.05 0.05 0.05 0.02 0.00 0.00 0.00 0.00 0.00 0.00 0.00 0.00 0.00 0.02 0.05 0.11 0.13 0.11 0.09
0.09 0.08 0.03 0.14 0.34 0.50 0.45 0.36 0.32 0.22 0.20 0.20 0.18 0.19 0.16 0.11 0.12 0.13 0.09 0.05 0.02 0.00 0.00 0.00 0.00 0.00 0.01 0.03 0.04 0.14 0.19 0.17 0.15
0.14 0.12 0.10 0.22 0.34 0.37 0.40 0.43 0.43 0.35 0.30 0.29 0.33 0.30 0.23 0.20 0.17 0.14 0.14 0.16 0.14 0.08 0.04 0.04 0.01 0.00 0.01 0.02 0.03 0.12 0.26 0.21 0.24
0.09 0.10 0.10 0.16 0.19 0.22 0.30 0.23 0.39 0.42 0.55 0.60 0.42 0.37 0.31 0.25 0.23 0.22 0.24 0.27 0.31 0.28 0.22 0.22 0.25 0.20 0.09 0.05 0.04 0.04 0.16 0.25 0.27
0.11 0.13 0.19 0.20 0.13 0.15 0.28 0.38 0.42 0.32 0.43 0.57 0.39 0.34 0.29 0.22 0.22 0.29 0.34 0.33 0.41 0.57 0.70 0.70 0.61 0.46 0.32 0.21 0.16 0.14 0.16 0.28 0.28
0.11 0.11 0.14 0.23 0.22 0.21 0.22 0.27 0.32 0.31 0.41 0.42 0.37 0.24 0.15 0.09 0.05 0.10 0.15 0.20 0.31 0.34 0.37 0.35 0.42 0.45 0.36 0.25 0.21 0.15 0.12 0.15 0.18
0.07 0.11 0.15 0.15 0.17 0.17 0.19 0.23 0.29 0.24 0.36 0.40 0.45 0.25 0.12 0.12 0.12 0.10 0.11 0.12 0.10 0.15 0.21 0.23 0.18 0.16 0.17 0.14 0.12 0.10 0.06 0.05 0.13
0.10 0.13 0.18 0.20 0.26 0.18 0.17 0.20 0.33 0.39 0.29 0.29 0.29 0.34 0.26 0.19 0.10 0.11 0.16 0.13 0.14 0.14 0.18 0.22 0.19 0.15 0.16 0.15 0.12 0.06 0.02 0.00 0.02
0.15 0.17 0.19 0.16 0.17 0.30 0.31 0.29 0.33 0.35 0.35 0.37 0.38 0.33 0.35 0.36 0.33 0.26 0.30 0.43 0.21 0.08 0.07 0.10 0.11 0.14 0.14 0.10 0.07 0.03 0.00 0.01 0.08